Погода в Пинске

Погода в Пинске : погода сейчас, прогноз погоды и архив. Всё, что Вы хотите узнать о погоде в Пинске!

Хотите узнать прогноз погоды в Пинске? Тогда Вам сюда: Погода в Пинске

Поиск расширенной информации на нашем сайте:

Другие новости

Новости СМИ2

Главная страница сайта

Новости сайта

03.07.2017

Напоминаем, что на нашем специализированном сайте Метеоцентр.Азия вы можете получить высокодетализированные автоматические прогнозы погоды по пунктам России, СНГ и мира в авиационном формате (включающие направление и скорость ветра, видимость, явления погоды, количество и форму облачности, нижнюю и верхнюю границу облачности).


Погода в Пинске - сегодня

Время (UTC), дата Ветер
(°,м/с) 
Видим.   Явления Облачность Т
(°С)
Тd
(°С)
f(%) Тe
(°С)
Pmin
(гПа)
dP
(гПа)
Po
(мм)
O2
(г/м3)
Тmin Tmax R s Состояние
почвы
18 12.11.18 110 (В) 9000 м  дымка  10/10 270 м 
[St]
+4.4 +2.9 90 +2  1032.2  0.6  761  301    +4.4       
21 12.11.18 130 (ЮВ) 5-10{11}  7000 м  дымка  10/10 240 м 
[St]
+4.3 +3.1 92 +2  1032.4  0.2  761  301           
00 13.11.18 130 (ЮВ) 4{10}  6000 м  дымка  10/10 210 м 
[St]
+4.2 +3.1 93 +2  1032.1  -0.3  761  301           
03 13.11.18 120 (ЮВ) 4{11}  9000 м  дымка  10/10 270 м 
[St]
+4.1 +2.7 91 +2  1031.5  -0.6  760  301           
06 13.11.18 130 (ЮВ) 6{11}  9000 м  дымка  10/10 300 м 
[St]
+3.5 +1.9 89 +1  1031.1  -0.5  760  302  +3.5         
09 13.11.18 150 (ЮВ) 4{10}  9000 м  дымка  10/10 300 м 
[St]
+4.1 +2.1 87 +2  1030.8  -0.2  760  301           
12 13.11.18 150 (ЮВ) 4{10}  10 км    10/10 400 м 
[St]
+5 +2.5 84 +3  1029.5  -1.2  759  300           
15 13.11.18 150 (ЮВ) 5{10}  10 км    10/10 420 м 
[St]
+4.8 +2 82 +3  1028  -1.5  758  300           
18 13.11.18 160 (Ю) 4{10}  10 км    10/10 360 м 
[St]
+3.8 +1.7 86 +2  1026.6  -1.5  757  300    +5       
21 13.11.18 160 (Ю) 10 км    10/10 330 м 
[St]
+3.7 +2.1 89 +2  1024.6  -1.9  755  300           
00 14.11.18 210 (ЮЗ) 7000 м  дымка{дождь, морось}  10/10 270 м 
[St]
+3.2 +2 92 +2  1022.7  -1.9  754  300           
03 14.11.18 220 (ЮЗ) 3100 м  слаб. дождь{морось}  10/10 270 м 
[Frnb|Ns]
+3.1 +3.1 100 +2  1021.1  -1.6  753  299         
06 14.11.18 230 (ЮЗ) 3100 м  в посл. час дождь  10/10 210 м 
[St]
+6 +6 100 +6  1020.5  -0.4  752  296  +3       
09 14.11.18 280 (З) 6000 м  слаб. дождь{морось}  10/10 420 м 
[Ns]
+8.2 +7.5 95 +8  1020.8  0.4  753  293           
12 14.11.18 300 (СЗ) 6000 м  слаб. дождь{морось}  10/10 210 м 
[Frnb|Ns]
+7.6 +6.7 94 +7  1021.4  0.6  753  294           
15 14.11.18 290 (З) 4200 м  дымка{дождь}  8/6 800 м верхняя 
[Sc|Ci fib]
+7 +6.3 95 +7  1022.7  1.2  754  295         
18 14.11.18 300 (СЗ) 6000 м  дымка{дождь}  9/0 средняя 
[Ac und]
+7.1 +6.4 95 +6  1023.8  1.1  755  295    +8.2     
21 14.11.18 290 (З) 3800 м  дымка  10/10 270 м 
[St]
+6.3 +5.8 97 +6  1025  1.1  756  297           
00 15.11.18 300 (СЗ) 3800 м  дымка  10/10 240 м 
[St]
+5.8 +5.3 97 +6  1026  756  298           
03 15.11.18 300 (СЗ) 6000 м  дымка  10/8 400 м средняя 
[St|Ac und]
+6.1 +5.4 95 +5  1026.5  0.5  757  297           
06 15.11.18 030 (СВ) 3700 м  слаб. дождь  10/10 210 м 
[Frnb|Ns]
+5 +4.4 96 +4  1028  1.4  758  299  +5       
09 15.11.18 040 (СВ) 8000 м  в посл. час дождь  10/10 270 м 
[St]
+3.6 +2.3 91 +2  1029.6  1.5  759  301           
12 15.11.18 060 (СВ) 10 км  {дождь}  9/9 600 м 
[Sc]
+2 +0.2 88 1031.4  1.6  760  304           
15 15.11.18 060 (СВ) 10 км    10/10 360 м 
[St]
+1 -0.8 88 -1  1033.9  2.4  762  306      0.7     
18 15.11.18 060 (СВ) 8000 м  дымка  10/10 300 м 
[St]
+0.9 -0.4 91 1035.3  1.4  763  306    +5.2  0.7     
Время (UTC), дата Ветер
(°,м/с) 
Видим.   Явления Облачность Т
(°С)
Тd
(°С)
f(%) Тe
(°С)
Pmin
(гПа)
dP
(гПа)
Po
(мм)
O2
(г/м3)
Тmin Tmax R s Состояние
почвы

Для получения пояснительной информации подведите курсор к названию столбца.

ПОГОДА в Пинске - архив

Всё, что Вы хотите узнать о погоде в Пинске - удобно и подробно!

Выберите нужную дату (начиная с 1 января 2015* года) и нажмите кнопку "Найти".
Будут отображены архивные сводки погоды по пункту Пинск, начиная с указанной даты.


Отображать данные в формате CSV (для использования в таблицах Excel)


Внимание! Наш архив погоды предназначен исключительно для личного некоммерческого использования в познавательных целях. Если Вам необходимы официальные справки о состоянии погоды (для производственных, юридических, коммерческих и т.п. целей), обращайтесь в органы Росгидромета.

*Примечание: данная дата относится к архиву по метеостанциям СССР (Россия, СНГ, Балтия).
Архив по метеостанциям Зарубежной Европы и Азии (кроме Китая) хранится 10 дней, по другим регионам земного шара (Китай, Африка, Америка, Австралия, Океания) - 1 день.

Пинск - район местоположения метеостанции


Название, широта, долгота, высота метеостанции:
Пинск 52.1°ш. 26.1°д. 142 м над ур. моря [Беларусь]

Дополнительная информация

В oтличие oт бoльшинства пoгoдных сайтoв мы публикуем пoдрoбную метеoинфoрмацию в детальнoм прoфессиoнальнoм фoрмате.

Характеристики температуры и влажнoсти вoздуха измеряются на высoте 2 м в тени вдали oт зданий и деревьев.
Скoрoсть ветра измеряется на высoте 10 м (на урoвне рoста челoвека скoрoсть ветра ниже в 1.5-2 раза). Если метеoстанция нахoдится в гoрoде или в лесу, тo скoрoсть ветра занижена на 2-4 м/с пo сравнению с oткрытым местoм. Скoрoсть ветра над акватoриями крупных рек и oзёр, а также на вершинах хoлмoв на 2-5 м/с выше, чем в oбычных услoвиях.
Атмoсфернoе давление в разных тoчках местнoсти мoжет значительнo oтличаться oт давления на метеoстанции, в зависимoсти oт услoвий рельефа (при пoдъёме на 10 м давление пoнижается примернo на 1 мм рт.ст.).